This is the latest recevied weather packets stored in our database for station/object EA1IOK-13. If no packets are shown the sender has not sent any weather packets the latest 10 day(s).
| Time | Temp. | Humidity | Pressure | Rain* | Wind** | Luminosity | Snow |
|---|---|---|---|---|---|---|---|
| 1777709887 | 14.44° C | 92% | 1015.9 hPa | 0 mm | - | - | - |
| 1777708995 | 13.33° C | 93% | 1016.2 hPa | 0 mm | - | - | - |
| 1777708098 | 12.78° C | 94% | 1016.1 hPa | 0 mm | - | - | - |
| 1777706289 | 12.78° C | 95% | 1015.9 hPa | 0 mm | - | - | - |
| 1777705388 | 12.22° C | 96% | 1016 hPa | 0 mm | - | - | - |
| 1777703589 | 10.56° C | 96% | 1016 hPa | 0 mm | - | - | - |
| 1777702689 | 10.56° C | 96% | 1016 hPa | 0 mm | - | - | - |
| 1777701788 | 10° C | 96% | 1015.9 hPa | 0 mm | - | - | - |
| 1777699989 | 10.56° C | 95% | 1015.8 hPa | 0 mm | - | - | - |
| 1777699088 | 11.11° C | 96% | 1015.8 hPa | 0 mm | - | - | - |
| 1777698187 | 10.56° C | 95% | 1015.9 hPa | 0 mm | - | - | - |
| 1777696388 | 11.11° C | 94% | 1015.9 hPa | 0 mm | - | - | - |
| 1777695488 | 11.11° C | 95% | 1015.9 hPa | 0 mm | - | - | - |
| 1777694587 | 11.11° C | 94% | 1016 hPa | 0 mm | - | - | - |
| 1777692787 | 11.67° C | 93% | 1016.1 hPa | 0 mm | - | - | - |
| 1777691888 | 11.67° C | 93% | 1016.2 hPa | 0 mm | - | - | - |
| 1777690988 | 12.22° C | 93% | 1016.3 hPa | 0 mm | - | - | - |
| 1777690087 | 11.67° C | 93% | 1016.4 hPa | 0 mm | - | - | - |
| 1777689188 | 12.22° C | 92% | 1016.4 hPa | 0 mm | - | - | - |
| 1777688287 | 12.22° C | 92% | 1016.4 hPa | 0 mm | - | - | - |
| 1777687388 | 12.22° C | 92% | 1016.5 hPa | 0 mm | - | - | - |
| 1777685589 | 12.78° C | 88% | 1016.9 hPa | 0 mm | - | - | - |
| 1777683787 | 13.89° C | 84% | 1017.2 hPa | 0 mm | - | - | - |
| 1777682887 | 13.89° C | 86% | 1017.4 hPa | 0 mm | - | - | - |
| 1777681988 | 13.89° C | 87% | 1017.4 hPa | 0 mm | - | - | - |
* Rain latest hour (hover to see other rain measurements)
** Current wind speed in m/s (hover to see current wind gust speed)